Regional Weather Roundup
Issued by NWS Columbia, SC

Home | Current Version | Previous Version | Text Only | Print | Product List | Glossary On
Versions: 1 2 3 4 5 6 7 8 9 10 11 12 13 14 15 16 17 18 19 20 21 22 23 24 25 26 27 28 29 30 31 32 33 34 35 36 37 38 39 40 41 42 43 44 45 46 47 48 49 50
353
ASUS42 KCAE 171410
RWRCAE
REGIONAL WEATHER ROUNDUP
NATIONAL WEATHER SERVICE COLUMBIA SC
1000 AM EDT SAT AUG 17 2019

NOTE: "FAIR" INDICATES FEW OR NO CLOUDS BELOW 12,000 FEET WITH NO
SIGNIFICANT WEATHER AND/OR OBSTRUCTIONS TO VISIBILITY.

NOT ALL STATIONS ARE QUALITY CONTROLLED BY THE NATIONAL
WEATHER SERVICE. USE DATA WITH CAUTION...ESPECIALLY
DEWPOINT OBSERVATIONS.

SCZ001>056-GAZ040-063>065-077-171500-
...UPSTATE SOUTH CAROLINA...

CITY           SKY/WX    TMP DP  RH WIND       PRES   REMARKS
ANDERSON       FAIR      83  72  69 E3        30.01S
LIBERTY        FAIR      81  74  80 CALM      30.02S
SPARTANBURG    FAIR      81  68  65 CALM      30.02R
CLEMSON        FAIR      79  72  79 CALM      30.03S
GREENVILLE     FAIR      85  71  63 NE6       30.03R
GREENWOOD      FAIR      80  74  81 SE5       30.02R
GREER          FAIR      82  69  64 NE7       30.03R
ROCK HILL      FAIR      82  72  71 VRB5      30.03R
CHESTER        FAIR      81  70  69 E3        30.03R
LAURENS        FAIR      81  72  74 E5        30.01S


...CENTRAL SOUTH CAROLINA...

CITY           SKY/WX    TMP DP  RH WIND       PRES   REMARKS
COLUMBIA APT   CLOUDY    80  74  81 CALM      30.00R
COLUMBIA OWENS CLOUDY    80  75  84 S5        30.00S
MCENTIRE ANGB  PTSUNNY   82  77  86 SE5       30.01R
ORANGEBURG     PTSUNNY   81  73  76 CALM      30.00R
SUMTER SHAW    PTSUNNY   81  76  83 SE5       30.01R
NEWBERRY       CLOUDY    79  75  89 E3        30.05R
AIKEN          PTSUNNY   79  75  89 E3        30.04R
BARNWELL       CLOUDY    81  75  83 SE3       30.00R
MANNING        DRIZZLE   77  77 100 SE3       30.01R
CAMDEN         PTSUNNY   79  77  94 E3        30.02R
LANCASTER      FAIR      82  73  74 CALM      30.02R
WINNSBORO      CLOUDY    75  73  94 CALM      30.02R


...EASTERN AND COASTAL SOUTH CAROLINA...

CITY           SKY/WX    TMP DP  RH WIND       PRES   REMARKS
MYRTLE BEACH   LGT RAIN  77  75  94 W5        30.02S FOG
N MYRTLE BCH   CLOUDY    78  75  90 W5        30.02R THUNDER
CONWAY         PTSUNNY   81  77  89 SW3       30.01S HAZE
MARION         FAIR      81  75  83 S7        30.01S
HARTSVILLE     CLOUDY    79  79 100 CALM      30.01S
FLORENCE       PTSUNNY   82  76  81 SE6       30.01R
DARLINGTON     CLOUDY    80  76  87 CALM      30.02R
CHARLESTON APT LGT RAIN  79  76  90 S6        29.98R
MOUNT PLEASANT LGT RAIN  81  79  94 SW7G13    29.99R
WALTERBORO     FAIR      77  77 100 CALM      30.00R
BEAUFORT       LGT RAIN  80  78  94 CALM      29.98R
HILTON HEAD    DRIZZLE   77  77 100 W8        29.98R


...EASTERN GEORGIA...

CITY           SKY/WX    TMP DP  RH WIND       PRES   REMARKS
AUGUSTA BUSH F CLOUDY    80  74  81 E5        29.99R
AUGUSTA DANIEL FAIR      82  73  74 VRB3      30.00S
THOMSON        FAIR      81  74  78 CALM      30.01R
WASHINGTON     FAIR      81  72  74 CALM      30.00R
CLAXTON        CLOUDY    82  77  84 CALM      30.00R
SYLVANIA         N/A     79  76  90 CALM      30.01R
STATESBORO     CLOUDY    79  73  81 CALM      30.00R
SAVANNAH       CLOUDY    81  77  88 W10       29.99R


...SOUTHERN NORTH CAROLINA...

CITY           SKY/WX    TMP DP  RH WIND       PRES   REMARKS
CHARLOTTE      PTSUNNY   80  72  76 E7        30.04R
MONROE         FAIR      80  72  76 CALM      30.02R
WADESBORO      CLOUDY    75  73  93 CALM      30.02R FOG
ROCKINGHAM     CLOUDY    75  71  87 CALM      30.02S FOG
RUTHERFORDTON  FAIR      81  68  65 CALM      30.06R
ASHEVILLE      FAIR      75  62  64 N8        30.11S

$$




USA.gov is the U.S. government's official web portal to all federal, state and local government web resources and services.